AEE8RD LGAV-LGRP

Flight info

Callsign AEE8RD
Flight time 0h 43m
Altitude 27000
Route KEA UL995 CODIC
Aircraft A320/M-SDE3FGHIRWY/LB1

Departure

Time 2026-05-06 19:10
Airport Athens Eleftherios Venizelos International Airport (LGAV)

Arrival

Time 2026-05-06 19:53
Airport Rhodes International Airport "Diagoras" (LGRP)
Time Latitude Longitude Altitude Speed Heading
2026-05-06 18:51 37.93085 23.94462 301 ft 0 kts 217°
2026-05-06 19:03 37.93092 23.94468 301 ft 4 kts 215°
2026-05-06 19:03 37.93115 23.94486 301 ft 4 kts 205°
2026-05-06 19:03 37.93140 23.94497 301 ft 4 kts 182°
2026-05-06 19:03 37.93161 23.94491 301 ft 3 kts 129°
2026-05-06 19:04 37.93166 23.94484 302 ft 0 kts 127°
2026-05-06 19:06 37.93149 23.94513 302 ft 9 kts 126°
2026-05-06 19:07 37.93102 23.94593 301 ft 13 kts 126°
2026-05-06 19:07 37.93038 23.94675 300 ft 14 kts 171°
2026-05-06 19:07 37.92950 23.94625 302 ft 15 kts 218°
2026-05-06 19:07 37.92864 23.94541 301 ft 16 kts 218°
2026-05-06 19:08 37.92771 23.94450 302 ft 18 kts 218°
2026-05-06 19:08 37.92670 23.94351 303 ft 19 kts 217°
2026-05-06 19:08 37.92557 23.94289 305 ft 16 kts 147°
2026-05-06 19:08 37.92492 23.94398 308 ft 15 kts 126°
2026-05-06 19:09 37.92504 23.94471 308 ft 0 kts 36°
2026-05-06 19:09 37.92724 23.94675 303 ft 74 kts 36°
2026-05-06 19:09 37.93291 23.95214 292 ft 127 kts 37°
2026-05-06 19:10 37.94123 23.95997 320 ft 165 kts 37°
2026-05-06 19:10 37.95028 23.96866 866 ft 164 kts 36°
2026-05-06 19:10 37.95948 23.97761 1380 ft 170 kts 38°
2026-05-06 19:10 37.96936 23.98728 1606 ft 191 kts 38°
2026-05-06 19:11 37.98056 23.99804 1785 ft 213 kts 38°
2026-05-06 19:11 37.99301 24.00998 2037 ft 236 kts 37°
2026-05-06 19:11 38.00665 24.02305 2526 ft 251 kts 37°
2026-05-06 19:11 38.02056 24.03638 3303 ft 255 kts 37°
2026-05-06 19:12 38.03478 24.05001 4140 ft 257 kts 37°
2026-05-06 19:12 38.04911 24.06378 4986 ft 259 kts 37°
2026-05-06 19:12 38.06348 24.07762 5852 ft 260 kts 37°
2026-05-06 19:12 38.07748 24.09219 6692 ft 262 kts 46°
2026-05-06 19:13 38.08729 24.11172 7425 ft 267 kts 69°
2026-05-06 19:13 38.09063 24.13537 7978 ft 282 kts 93°
2026-05-06 19:13 38.08606 24.15982 8618 ft 290 kts 112°
2026-05-06 19:13 38.07608 24.18220 9337 ft 295 kts 128°
2026-05-06 19:14 38.06137 24.20040 10065 ft 299 kts 145°
2026-05-06 19:14 38.04259 24.21272 10444 ft 314 kts 163°
2026-05-06 19:14 38.02046 24.21801 10579 ft 336 kts 173°
2026-05-06 19:14 37.99662 24.22205 10796 ft 354 kts 173°
2026-05-06 19:15 37.97189 24.22625 11326 ft 361 kts 173°
2026-05-06 19:15 37.94690 24.23118 11927 ft 367 kts 167°
2026-05-06 19:15 37.92331 24.24388 12515 ft 372 kts 147°
2026-05-06 19:15 37.90393 24.26572 13107 ft 377 kts 131°
2026-05-06 19:16 37.88645 24.29064 13712 ft 381 kts 131°
2026-05-06 19:16 37.86893 24.31597 14255 ft 385 kts 130°
2026-05-06 19:16 37.85120 24.34164 14745 ft 389 kts 131°
2026-05-06 19:16 37.83350 24.36719 15248 ft 393 kts 131°
2026-05-06 19:17 37.81533 24.39335 15756 ft 397 kts 131°
2026-05-06 19:17 37.79692 24.41976 16250 ft 402 kts 131°
2026-05-06 19:17 37.77832 24.44638 16758 ft 406 kts 131°
2026-05-06 19:17 37.75950 24.47326 17276 ft 410 kts 131°
2026-05-06 19:18 37.74050 24.50039 17801 ft 414 kts 131°
2026-05-06 19:18 37.72133 24.52776 18334 ft 419 kts 131°
2026-05-06 19:18 37.70193 24.55547 18812 ft 422 kts 131°
2026-05-06 19:18 37.68241 24.58334 19307 ft 426 kts 131°
2026-05-06 19:19 37.66269 24.61148 19815 ft 429 kts 130°
2026-05-06 19:19 37.64285 24.63981 20331 ft 432 kts 130°
2026-05-06 19:19 37.62284 24.66835 20826 ft 436 kts 130°
2026-05-06 19:19 37.60267 24.69701 21304 ft 439 kts 131°
2026-05-06 19:20 37.58231 24.72585 21753 ft 442 kts 131°
2026-05-06 19:20 37.56177 24.75491 22200 ft 445 kts 131°
2026-05-06 19:20 37.54109 24.78416 22636 ft 448 kts 131°
2026-05-06 19:20 37.52036 24.81348 23079 ft 450 kts 131°
2026-05-06 19:21 37.49951 24.84295 23504 ft 453 kts 130°
2026-05-06 19:21 37.47845 24.87271 23880 ft 455 kts 131°
2026-05-06 19:21 37.45731 24.90259 24225 ft 458 kts 131°
2026-05-06 19:21 37.43602 24.93265 24559 ft 460 kts 131°
2026-05-06 19:22 37.41461 24.96285 24899 ft 463 kts 131°
2026-05-06 19:22 37.39315 24.99309 25232 ft 465 kts 130°
2026-05-06 19:22 37.37345 25.02541 25553 ft 466 kts 121°
2026-05-06 19:22 37.35794 25.06062 25822 ft 467 kts 112°
2026-05-06 19:23 37.34644 25.09895 25962 ft 472 kts 105°
2026-05-06 19:23 37.33606 25.13837 26076 ft 478 kts 106°
2026-05-06 19:23 37.32547 25.17827 26201 ft 485 kts 106°
2026-05-06 19:23 37.31466 25.21868 26323 ft 490 kts 106°
2026-05-06 19:24 37.30366 25.25956 26469 ft 495 kts 106°
2026-05-06 19:24 37.29259 25.30053 26735 ft 496 kts 106°
2026-05-06 19:24 37.28148 25.34154 27012 ft 497 kts 106°
2026-05-06 19:24 37.27015 25.38254 27081 ft 497 kts 107°
2026-05-06 19:25 37.25796 25.42314 27087 ft 497 kts 109°
2026-05-06 19:25 37.24501 25.46341 27086 ft 498 kts 110°
2026-05-06 19:25 37.23164 25.50345 27086 ft 498 kts 111°
2026-05-06 19:25 37.21807 25.54348 27093 ft 498 kts 111°
2026-05-06 19:26 37.20448 25.58334 27094 ft 498 kts 111°
2026-05-06 19:26 37.19090 25.62332 27092 ft 498 kts 111°
2026-05-06 19:26 37.17740 25.66333 27095 ft 498 kts 110°
2026-05-06 19:26 37.16396 25.70342 27091 ft 499 kts 110°
2026-05-06 19:27 37.15054 25.74362 27094 ft 499 kts 110°
2026-05-06 19:27 37.13732 25.78331 27094 ft 499 kts 110°
2026-05-06 19:27 37.12394 25.82346 27094 ft 499 kts 110°
2026-05-06 19:27 37.11047 25.86364 27093 ft 499 kts 110°
2026-05-06 19:28 37.09697 25.90371 27093 ft 499 kts 110°
2026-05-06 19:28 37.08344 25.94380 27095 ft 499 kts 110°
2026-05-06 19:28 37.06991 25.98389 27098 ft 499 kts 110°
2026-05-06 19:28 37.05642 26.02388 27095 ft 499 kts 110°
2026-05-06 19:29 37.04290 26.06398 27094 ft 500 kts 110°
2026-05-06 19:29 37.02939 26.10401 27093 ft 500 kts 110°
2026-05-06 19:29 37.01582 26.14401 27089 ft 500 kts 110°
2026-05-06 19:29 37.00218 26.18406 27092 ft 499 kts 111°
2026-05-06 19:30 36.98855 26.22407 27099 ft 499 kts 111°
2026-05-06 19:30 36.97492 26.26410 27110 ft 499 kts 110°
2026-05-06 19:30 36.96135 26.30408 27106 ft 500 kts 110°
2026-05-06 19:30 36.94783 26.34408 27102 ft 500 kts 110°
2026-05-06 19:31 36.93429 26.38417 27101 ft 500 kts 110°
2026-05-06 19:31 36.92073 26.42426 27098 ft 500 kts 110°
2026-05-06 19:31 36.89352 26.50428 27098 ft 500 kts 110°
2026-05-06 19:32 36.87987 26.54425 27102 ft 500 kts 110°
2026-05-06 19:32 36.86641 26.58356 26860 ft 497 kts 111°
2026-05-06 19:32 36.85280 26.62322 25851 ft 498 kts 110°
2026-05-06 19:32 36.83920 26.66277 25164 ft 493 kts 110°
2026-05-06 19:33 36.82574 26.70183 24491 ft 488 kts 110°
2026-05-06 19:33 36.81237 26.74058 23849 ft 483 kts 110°
2026-05-06 19:33 36.79916 26.77886 23137 ft 478 kts 110°
2026-05-06 19:33 36.78609 26.81676 22431 ft 473 kts 110°
2026-05-06 19:34 36.77318 26.85423 21753 ft 468 kts 110°
2026-05-06 19:34 36.76041 26.89129 21100 ft 463 kts 111°
2026-05-06 19:34 36.74771 26.92793 20455 ft 458 kts 111°
2026-05-06 19:34 36.73513 26.96418 19828 ft 453 kts 111°
2026-05-06 19:35 36.72268 26.99999 19239 ft 448 kts 111°
2026-05-06 19:35 36.71038 27.03546 18672 ft 444 kts 111°
2026-05-06 19:35 36.69820 27.07056 18092 ft 439 kts 111°
2026-05-06 19:35 36.68607 27.10536 17487 ft 435 kts 112°
2026-05-06 19:36 36.67811 27.12817 17111 ft 433 kts 112°
2026-05-06 19:36 36.66617 27.16241 16566 ft 429 kts 112°
2026-05-06 19:36 36.65433 27.19638 16021 ft 425 kts 112°
2026-05-06 19:36 36.64258 27.22999 15470 ft 422 kts 112°
2026-05-06 19:37 36.63089 27.26335 14926 ft 418 kts 112°
2026-05-06 19:37 36.61930 27.29638 14372 ft 415 kts 112°
2026-05-06 19:37 36.60779 27.32915 13808 ft 411 kts 112°
2026-05-06 19:37 36.59634 27.36159 13201 ft 407 kts 112°
2026-05-06 19:38 36.58499 27.39372 12593 ft 403 kts 112°
2026-05-06 19:38 36.57378 27.42542 12004 ft 398 kts 112°
2026-05-06 19:38 36.56269 27.45678 11427 ft 394 kts 112°
2026-05-06 19:38 36.55185 27.48750 10850 ft 390 kts 112°
2026-05-06 19:39 36.54103 27.51818 10285 ft 386 kts 112°
2026-05-06 19:39 36.53031 27.54857 9710 ft 381 kts 112°
2026-05-06 19:39 36.51972 27.57856 9120 ft 377 kts 112°
2026-05-06 19:39 36.50925 27.60814 8554 ft 371 kts 112°
2026-05-06 19:40 36.49889 27.63736 7989 ft 366 kts 112°
2026-05-06 19:40 36.48867 27.66611 7448 ft 361 kts 112°
2026-05-06 19:40 36.47856 27.69447 6923 ft 356 kts 112°
2026-05-06 19:40 36.46857 27.72241 6397 ft 351 kts 112°
2026-05-06 19:41 36.45874 27.75002 5818 ft 348 kts 112°
2026-05-06 19:41 36.44900 27.77746 5235 ft 345 kts 112°
2026-05-06 19:41 36.43935 27.80458 4641 ft 343 kts 112°
2026-05-06 19:41 36.42971 27.83161 4047 ft 341 kts 112°
2026-05-06 19:42 36.42011 27.85852 3442 ft 340 kts 112°
2026-05-06 19:42 36.41055 27.88529 2851 ft 339 kts 112°
2026-05-06 19:42 36.40100 27.91201 2260 ft 338 kts 112°
2026-05-06 19:42 36.39147 27.93860 2031 ft 339 kts 112°
2026-05-06 19:43 36.38191 27.96523 1994 ft 332 kts 112°
2026-05-06 19:43 36.37277 27.99059 2017 ft 312 kts 112°
2026-05-06 19:43 36.36416 28.01449 2014 ft 295 kts 112°
2026-05-06 19:43 36.35724 28.03749 2008 ft 277 kts 99°
2026-05-06 19:44 36.35662 28.06046 2014 ft 263 kts 78°
2026-05-06 19:44 36.36229 28.08139 2006 ft 259 kts 58°
2026-05-06 19:44 36.37142 28.10067 2011 ft 259 kts 56°
2026-05-06 19:44 36.38054 28.11984 2008 ft 258 kts 57°
2026-05-06 19:45 36.38967 28.13913 1982 ft 260 kts 57°
2026-05-06 19:45 36.39875 28.15839 1984 ft 258 kts 57°
2026-05-06 19:45 36.40785 28.17772 1986 ft 260 kts 57°
2026-05-06 19:45 36.41694 28.19706 1984 ft 259 kts 57°
2026-05-06 19:46 36.42602 28.21640 1988 ft 258 kts 57°
2026-05-06 19:46 36.43508 28.23569 1992 ft 259 kts 57°
2026-05-06 19:46 36.44417 28.25503 1992 ft 259 kts 57°
2026-05-06 19:46 36.45322 28.27427 1990 ft 258 kts 57°
2026-05-06 19:47 36.46227 28.29346 1989 ft 255 kts 57°
2026-05-06 19:47 36.47097 28.31195 1991 ft 240 kts 57°
2026-05-06 19:47 36.48133 28.32674 1996 ft 218 kts 27°
2026-05-06 19:47 36.49562 28.33055 1997 ft 211 kts 349°
2026-05-06 19:48 36.50847 28.32268 1997 ft 206 kts 313°
2026-05-06 19:48 36.51459 28.30736 1993 ft 199 kts 278°
2026-05-06 19:48 36.51238 28.29061 1994 ft 202 kts 243°
2026-05-06 19:48 36.50269 28.27800 2003 ft 206 kts 217°
2026-05-06 19:49 36.49104 28.26773 2011 ft 202 kts 218°
2026-05-06 19:49 36.48008 28.25814 2005 ft 185 kts 218°
2026-05-06 19:49 36.47004 28.24932 1972 ft 169 kts 219°
2026-05-06 19:49 36.46070 28.24108 1967 ft 161 kts 219°
2026-05-06 19:50 36.45175 28.23291 1976 ft 159 kts 227°
2026-05-06 19:50 36.44586 28.22298 1984 ft 152 kts 250°
2026-05-06 19:50 36.44201 28.21061 1829 ft 148 kts 253°
2026-05-06 19:50 36.43855 28.19884 1671 ft 146 kts 254°
2026-05-06 19:51 36.43519 28.18704 1443 ft 144 kts 253°
2026-05-06 19:51 36.43172 28.17543 1224 ft 143 kts 252°
2026-05-06 19:51 36.42818 28.16390 1046 ft 143 kts 252°
2026-05-06 19:51 36.42469 28.15232 846 ft 142 kts 252°
2026-05-06 19:52 36.42140 28.14080 651 ft 141 kts 251°
2026-05-06 19:52 36.41810 28.12941 499 ft 140 kts 249°
2026-05-06 19:52 36.41478 28.11809 317 ft 139 kts 250°
2026-05-06 19:52 36.41144 28.10684 119 ft 138 kts 248°
2026-05-06 19:53 36.40828 28.09608 31 ft 120 kts 249°
2026-05-06 19:53 36.40594 28.08824 28 ft 75 kts 250°
2026-05-06 19:53 36.40477 28.08415 28 ft 26 kts 250°
2026-05-06 19:53 36.40422 28.08226 27 ft 24 kts 250°
2026-05-06 19:54 36.40353 28.08040 29 ft 24 kts 231°
2026-05-06 19:54 36.40232 28.07908 28 ft 21 kts 220°
2026-05-06 19:54 36.40143 28.07899 28 ft 15 kts 82°
2026-05-06 19:54 36.40182 28.08023 28 ft 16 kts 69°
2026-05-06 19:55 36.40224 28.08164 28 ft 18 kts 70°
2026-05-06 19:55 36.40270 28.08320 28 ft 20 kts 70°
2026-05-06 19:55 36.40321 28.08495 28 ft 23 kts 70°
2026-05-06 19:55 36.40375 28.08685 28 ft 23 kts 71°
2026-05-06 19:56 36.40401 28.08863 28 ft 20 kts 102°
2026-05-06 19:56 36.40408 28.09034 28 ft 21 kts 70°
2026-05-06 19:56 36.40451 28.09179 28 ft 15 kts 70°
2026-05-06 19:56 36.40465 28.09260 28 ft 9 kts 110°
2026-05-06 19:57 36.40423 28.09285 28 ft 6 kts 165°
2026-05-06 19:57 36.40412 28.09290 28 ft 0 kts 159°